Year,Month,Day,Hour,Minute,Value (Times are PST for temperature in C)
2011,04,03,00,00,3.00
2011,04,03,00,01,3.00
2011,04,03,00,02,3.00
2011,04,03,00,03,3.00
2011,04,03,00,04,3.00
2011,04,03,00,05,3.00
2011,04,03,00,06,3.00
2011,04,03,00,07,3.00
2011,04,03,00,08,2.90
2011,04,03,00,09,2.90
2011,04,03,00,10,2.90
2011,04,03,00,11,2.90
2011,04,03,00,12,2.90
2011,04,03,00,13,2.90
2011,04,03,00,14,2.80
2011,04,03,00,15,2.80
2011,04,03,00,16,2.80
2011,04,03,00,17,2.80
2011,04,03,00,18,2.80
2011,04,03,00,19,2.70
2011,04,03,00,20,2.70
2011,04,03,00,21,2.70
2011,04,03,00,22,2.60
2011,04,03,00,23,2.60
2011,04,03,00,24,2.60
2011,04,03,00,25,2.60
2011,04,03,00,26,2.60
2011,04,03,00,27,2.60
2011,04,03,00,28,2.60
2011,04,03,00,29,2.60
2011,04,03,00,30,2.60
2011,04,03,00,31,2.50
2011,04,03,00,32,2.50
2011,04,03,00,33,2.40
2011,04,03,00,34,2.40
2011,04,03,00,35,2.40
2011,04,03,00,36,2.30
2011,04,03,00,37,2.30
2011,04,03,00,38,2.30
2011,04,03,00,39,2.30
2011,04,03,00,40,2.30
2011,04,03,00,41,2.20
2011,04,03,00,42,2.20
2011,04,03,00,43,2.20
2011,04,03,00,44,2.10
2011,04,03,00,45,2.10
2011,04,03,00,46,2.10
2011,04,03,00,47,2.00
2011,04,03,00,48,2.00
2011,04,03,00,49,2.00
2011,04,03,00,50,2.00
2011,04,03,00,51,2.00
2011,04,03,00,52,2.00
2011,04,03,00,53,2.00
2011,04,03,00,54,1.90
2011,04,03,00,55,1.90
2011,04,03,00,56,1.90
2011,04,03,00,57,1.90
2011,04,03,00,58,1.90
2011,04,03,00,59,1.90
2011,04,03,01,00,2.00
2011,04,03,01,01,2.00
2011,04,03,01,02,1.90
2011,04,03,01,03,1.90
2011,04,03,01,04,1.90
2011,04,03,01,05,1.90
2011,04,03,01,06,1.90
2011,04,03,01,07,1.90
2011,04,03,01,08,1.90
2011,04,03,01,09,1.90
2011,04,03,01,10,1.90
2011,04,03,01,11,1.90
2011,04,03,01,12,1.90
2011,04,03,01,13,1.90
2011,04,03,01,14,1.90
2011,04,03,01,15,1.90
2011,04,03,01,16,1.90
2011,04,03,01,17,1.90
2011,04,03,01,18,1.90
2011,04,03,01,19,1.90
2011,04,03,01,20,1.80
2011,04,03,01,21,1.80
2011,04,03,01,22,1.80
2011,04,03,01,23,1.80
2011,04,03,01,24,1.80
2011,04,03,01,25,1.80
2011,04,03,01,26,1.70
2011,04,03,01,27,1.70
2011,04,03,01,28,1.70
2011,04,03,01,29,1.70
2011,04,03,01,30,1.70
2011,04,03,01,31,1.60
2011,04,03,01,32,1.60
2011,04,03,01,33,1.50
2011,04,03,01,34,1.40
2011,04,03,01,35,1.30
2011,04,03,01,36,1.30
2011,04,03,01,37,1.30
2011,04,03,01,38,1.30
2011,04,03,01,39,1.30
2011,04,03,01,40,1.30
2011,04,03,01,41,1.30
2011,04,03,01,42,1.30
2011,04,03,01,43,1.30
2011,04,03,01,44,1.30
2011,04,03,01,45,1.30
2011,04,03,01,46,1.30
2011,04,03,01,47,1.30
2011,04,03,01,48,1.30
2011,04,03,01,49,1.30
2011,04,03,01,50,1.30
2011,04,03,01,51,1.30
2011,04,03,01,52,1.30
2011,04,03,01,53,1.30
2011,04,03,01,54,1.30
2011,04,03,01,55,1.30
2011,04,03,01,56,1.30
2011,04,03,01,57,1.30
2011,04,03,01,58,1.30
2011,04,03,01,59,1.40
2011,04,03,02,00,1.50
2011,04,03,02,01,1.50
2011,04,03,02,02,1.60
2011,04,03,02,03,1.60
2011,04,03,02,04,1.60
2011,04,03,02,05,1.70
2011,04,03,02,06,1.70
2011,04,03,02,07,1.60
2011,04,03,02,08,1.60
2011,04,03,02,09,1.60
2011,04,03,02,10,1.60
2011,04,03,02,11,1.50
2011,04,03,02,12,1.50
2011,04,03,02,13,1.50
2011,04,03,02,14,1.40
2011,04,03,02,15,1.40
2011,04,03,02,16,1.40
2011,04,03,02,17,1.40
2011,04,03,02,18,1.40
2011,04,03,02,19,1.40
2011,04,03,02,20,1.40
2011,04,03,02,21,1.40
2011,04,03,02,22,1.40
2011,04,03,02,23,1.30
2011,04,03,02,24,1.30
2011,04,03,02,25,1.30
2011,04,03,02,26,1.30
2011,04,03,02,27,1.30
2011,04,03,02,28,1.30
2011,04,03,02,29,1.30
2011,04,03,02,30,1.30
2011,04,03,02,31,1.30
2011,04,03,02,32,1.20
2011,04,03,02,33,1.20
2011,04,03,02,34,1.10
2011,04,03,02,35,1.10
2011,04,03,02,36,1.00
2011,04,03,02,37,1.00
2011,04,03,02,38,1.00
2011,04,03,02,39,0.90
2011,04,03,02,40,0.90
2011,04,03,02,41,0.90
2011,04,03,02,42,0.90
2011,04,03,02,43,0.90
2011,04,03,02,44,0.90
2011,04,03,02,45,0.90
2011,04,03,02,46,0.90
2011,04,03,02,47,0.90
2011,04,03,02,48,0.90
2011,04,03,02,49,0.90
2011,04,03,02,50,0.90
2011,04,03,02,51,0.90
2011,04,03,02,52,0.90
2011,04,03,02,53,0.90
2011,04,03,02,54,0.80
2011,04,03,02,55,0.80
2011,04,03,02,56,0.80
2011,04,03,02,57,0.80
2011,04,03,02,58,0.80
2011,04,03,02,59,0.80
2011,04,03,03,00,0.70
2011,04,03,03,01,0.70
2011,04,03,03,02,0.70
2011,04,03,03,03,0.70
2011,04,03,03,04,0.70
2011,04,03,03,05,0.70
2011,04,03,03,06,0.70
2011,04,03,03,07,0.60
2011,04,03,03,08,0.60
2011,04,03,03,09,0.60
2011,04,03,03,10,0.60
2011,04,03,03,11,0.60
2011,04,03,03,12,0.60
2011,04,03,03,13,0.60
2011,04,03,03,14,0.60
2011,04,03,03,15,0.50
2011,04,03,03,16,0.50
2011,04,03,03,17,0.50
2011,04,03,03,18,0.50
2011,04,03,03,19,0.50
2011,04,03,03,20,0.50
2011,04,03,03,21,0.50
2011,04,03,03,22,0.40
2011,04,03,03,23,0.40
2011,04,03,03,24,0.40
2011,04,03,03,25,0.40
2011,04,03,03,26,0.40
2011,04,03,03,27,0.40
2011,04,03,03,28,0.40
2011,04,03,03,29,0.30
2011,04,03,03,30,0.30
2011,04,03,03,31,0.30
2011,04,03,03,32,0.30
2011,04,03,03,33,0.30
2011,04,03,03,34,0.30
2011,04,03,03,35,0.30
2011,04,03,03,36,0.30
2011,04,03,03,37,0.30
2011,04,03,03,38,0.20
2011,04,03,03,39,0.20
2011,04,03,03,40,0.30
2011,04,03,03,41,0.30
2011,04,03,03,42,0.20
2011,04,03,03,43,0.20
2011,04,03,03,44,0.20
2011,04,03,03,45,0.20
2011,04,03,03,46,0.20
2011,04,03,03,47,0.20
2011,04,03,03,48,0.20
2011,04,03,03,49,0.20
2011,04,03,03,50,0.20
2011,04,03,03,51,0.20
2011,04,03,03,52,0.20
2011,04,03,03,53,0.20
2011,04,03,03,54,0.20
2011,04,03,03,55,0.20
2011,04,03,03,56,0.10
2011,04,03,03,57,0.10
2011,04,03,03,58,0.10
2011,04,03,03,59,0.10
2011,04,03,04,00,0.10
2011,04,03,04,01,0.10
2011,04,03,04,02,0.10
2011,04,03,04,03,0.00
2011,04,03,04,04,0.00
2011,04,03,04,05,0.00
2011,04,03,04,06,0.00
2011,04,03,04,07,0.00
2011,04,03,04,08,-0.10
2011,04,03,04,09,-0.10
2011,04,03,04,10,-0.10
2011,04,03,04,11,-0.10
2011,04,03,04,12,-0.10
2011,04,03,04,13,-0.10
2011,04,03,04,14,-0.10
2011,04,03,04,15,-0.10
2011,04,03,04,16,-0.10
2011,04,03,04,17,-0.10
2011,04,03,04,18,-0.10
2011,04,03,04,19,-0.20
2011,04,03,04,20,-0.20
2011,04,03,04,21,-0.20
2011,04,03,04,22,-0.20
2011,04,03,04,23,-0.20
2011,04,03,04,24,-0.20
2011,04,03,04,25,-0.20
2011,04,03,04,26,-0.20
2011,04,03,04,27,-0.20
2011,04,03,04,28,-0.20
2011,04,03,04,29,-0.20
2011,04,03,04,30,-0.30
2011,04,03,04,31,-0.30
2011,04,03,04,32,-0.30
2011,04,03,04,33,-0.30
2011,04,03,04,34,-0.30
2011,04,03,04,35,-0.30
2011,04,03,04,36,-0.30
2011,04,03,04,37,-0.30
2011,04,03,04,38,-0.30
2011,04,03,04,39,-0.30
2011,04,03,04,40,-0.30
2011,04,03,04,41,-0.30
2011,04,03,04,42,-0.30
2011,04,03,04,43,-0.30
2011,04,03,04,44,-0.30
2011,04,03,04,45,-0.30
2011,04,03,04,46,-0.30
2011,04,03,04,47,-0.30
2011,04,03,04,48,-0.30
2011,04,03,04,49,-0.30
2011,04,03,04,50,-0.30
2011,04,03,04,51,-0.30
2011,04,03,04,52,-0.30
2011,04,03,04,53,-0.30
2011,04,03,04,54,-0.30
2011,04,03,04,55,-0.30
2011,04,03,04,56,-0.30
2011,04,03,04,57,-0.30
2011,04,03,04,58,-0.30
2011,04,03,04,59,-0.30
2011,04,03,05,00,-0.30
2011,04,03,05,01,-0.30
2011,04,03,05,02,-0.30
2011,04,03,05,03,-0.30
2011,04,03,05,04,-0.30
2011,04,03,05,05,-0.30
2011,04,03,05,06,-0.30
2011,04,03,05,07,-0.30
2011,04,03,05,08,-0.30
2011,04,03,05,09,-0.30
2011,04,03,05,10,-0.30
2011,04,03,05,11,-0.30
2011,04,03,05,12,-0.30
2011,04,03,05,13,-0.30
2011,04,03,05,14,-0.30
2011,04,03,05,15,-0.30
2011,04,03,05,16,-0.30
2011,04,03,05,17,-0.30
2011,04,03,05,18,-0.30
2011,04,03,05,19,-0.30
2011,04,03,05,20,-0.30
2011,04,03,05,21,-0.30
2011,04,03,05,22,-0.30
2011,04,03,05,23,-0.30
2011,04,03,05,24,-0.30
2011,04,03,05,25,-0.30
2011,04,03,05,26,-0.20
2011,04,03,05,27,-0.20
2011,04,03,05,28,-0.20
2011,04,03,05,29,-0.20
2011,04,03,05,30,-0.20
2011,04,03,05,31,-0.20
2011,04,03,05,32,-0.20
2011,04,03,05,33,-0.20
2011,04,03,05,34,-0.20
2011,04,03,05,35,-0.20
2011,04,03,05,36,-0.20
2011,04,03,05,37,-0.20
2011,04,03,05,38,-0.20
2011,04,03,05,39,-0.20
2011,04,03,05,40,-0.20
2011,04,03,05,41,-0.20
2011,04,03,05,42,-0.20
2011,04,03,05,43,-0.20
2011,04,03,05,44,-0.20
2011,04,03,05,45,-0.20
2011,04,03,05,46,-0.20
2011,04,03,05,47,-0.20
2011,04,03,05,48,-0.20
2011,04,03,05,49,-0.20
2011,04,03,05,50,-0.20
2011,04,03,05,51,-0.20
2011,04,03,05,52,-0.20
2011,04,03,05,53,-0.20
2011,04,03,05,54,-0.20
2011,04,03,05,55,-0.20
2011,04,03,05,56,-0.20
2011,04,03,05,57,-0.20
2011,04,03,05,58,-0.20
2011,04,03,05,59,-0.20
2011,04,03,06,00,-0.20
2011,04,03,06,01,-0.20
2011,04,03,06,02,-0.20
2011,04,03,06,03,-0.20
2011,04,03,06,04,-0.20
2011,04,03,06,05,-0.10
2011,04,03,06,06,-0.10
2011,04,03,06,07,-0.10
2011,04,03,06,08,-0.10
2011,04,03,06,09,-0.10
2011,04,03,06,10,-0.10
2011,04,03,06,11,-0.10
2011,04,03,06,12,-0.10
2011,04,03,06,13,-0.10
2011,04,03,06,14,-0.10
2011,04,03,06,15,-0.10
2011,04,03,06,16,-0.10
2011,04,03,06,17,-0.10
2011,04,03,06,18,-0.10
2011,04,03,06,19,0.00
2011,04,03,06,20,0.00
2011,04,03,06,21,0.00
2011,04,03,06,22,0.00
2011,04,03,06,23,0.10
2011,04,03,06,24,0.10
2011,04,03,06,25,0.10
2011,04,03,06,26,0.10
2011,04,03,06,27,0.10
2011,04,03,06,28,0.10
2011,04,03,06,29,0.10
2011,04,03,06,30,0.20
2011,04,03,06,31,0.20
2011,04,03,06,32,0.20
2011,04,03,06,33,0.20
2011,04,03,06,34,0.20
2011,04,03,06,35,0.20
2011,04,03,06,36,0.20
2011,04,03,06,37,0.20
2011,04,03,06,38,0.20
2011,04,03,06,39,0.20
2011,04,03,06,40,0.20
2011,04,03,06,41,0.30
2011,04,03,06,42,0.30
2011,04,03,06,43,0.30
2011,04,03,06,44,0.30
2011,04,03,06,45,0.30
2011,04,03,06,46,0.30
2011,04,03,06,47,0.30
2011,04,03,06,48,0.40
2011,04,03,06,49,0.40
2011,04,03,06,50,0.40
2011,04,03,06,51,0.40
2011,04,03,06,52,0.40
2011,04,03,06,53,0.40
2011,04,03,06,54,0.40
2011,04,03,06,55,0.40
2011,04,03,06,56,0.50
2011,04,03,06,57,0.50
2011,04,03,06,58,0.50
2011,04,03,06,59,0.60
2011,04,03,07,00,0.60
2011,04,03,07,01,0.60
2011,04,03,07,02,0.60
2011,04,03,07,03,0.60
2011,04,03,07,04,0.60
2011,04,03,07,05,0.60
2011,04,03,07,06,0.70
2011,04,03,07,07,0.70
2011,04,03,07,08,0.70
2011,04,03,07,09,0.70
2011,04,03,07,10,0.70
2011,04,03,07,11,0.80
2011,04,03,07,12,0.80
2011,04,03,07,13,0.80
2011,04,03,07,14,0.80
2011,04,03,07,15,0.90
2011,04,03,07,16,0.90
2011,04,03,07,17,0.90
2011,04,03,07,18,0.90
2011,04,03,07,19,1.00
2011,04,03,07,20,1.00
2011,04,03,07,21,1.00
2011,04,03,07,22,1.10
2011,04,03,07,23,1.10
2011,04,03,07,24,1.10
2011,04,03,07,25,1.10
2011,04,03,07,26,1.20
2011,04,03,07,27,1.20
2011,04,03,07,28,1.20
2011,04,03,07,29,1.20
2011,04,03,07,30,1.20
2011,04,03,07,31,1.20
2011,04,03,07,32,1.20
2011,04,03,07,33,1.20
2011,04,03,07,34,1.20
2011,04,03,07,35,1.30
2011,04,03,07,36,1.30
2011,04,03,07,37,1.30
2011,04,03,07,38,1.30
2011,04,03,07,39,1.30
2011,04,03,07,40,1.30
2011,04,03,07,41,1.30
2011,04,03,07,42,1.30
2011,04,03,07,43,1.30
2011,04,03,07,44,1.30
2011,04,03,07,45,1.30
2011,04,03,07,46,1.30
2011,04,03,07,47,1.30
2011,04,03,07,48,1.30
2011,04,03,07,49,1.30
2011,04,03,07,50,1.40
2011,04,03,07,51,1.40
2011,04,03,07,52,1.40
2011,04,03,07,53,1.50
2011,04,03,07,54,1.50
2011,04,03,07,55,1.50
2011,04,03,07,56,1.60
2011,04,03,07,57,1.60
2011,04,03,07,58,1.60
2011,04,03,07,59,1.70
2011,04,03,08,00,1.70
2011,04,03,08,01,1.70
2011,04,03,08,02,1.70
2011,04,03,08,03,1.70
2011,04,03,08,04,1.70
2011,04,03,08,05,1.80
2011,04,03,08,06,1.80
2011,04,03,08,07,1.80
2011,04,03,08,08,1.80
2011,04,03,08,09,1.80
2011,04,03,08,10,1.80
2011,04,03,08,11,1.80
2011,04,03,08,12,1.90
2011,04,03,08,13,1.90
2011,04,03,08,14,1.90
2011,04,03,08,15,1.90
2011,04,03,08,16,1.90
2011,04,03,08,17,2.00
2011,04,03,08,18,2.00
2011,04,03,08,19,2.10
2011,04,03,08,20,2.10
2011,04,03,08,21,2.10
2011,04,03,08,22,2.10
2011,04,03,08,23,2.20
2011,04,03,08,24,2.20
2011,04,03,08,25,2.20
2011,04,03,08,26,2.30
2011,04,03,08,27,2.30
2011,04,03,08,28,2.30
2011,04,03,08,29,2.30
2011,04,03,08,30,2.40
2011,04,03,08,31,2.40
2011,04,03,08,32,2.40
2011,04,03,08,33,2.40
2011,04,03,08,34,2.50
2011,04,03,08,35,2.50
2011,04,03,08,36,2.50
2011,04,03,08,37,2.50
2011,04,03,08,38,2.50
2011,04,03,08,39,2.60
2011,04,03,08,40,2.60
2011,04,03,08,41,2.60
2011,04,03,08,42,2.70
2011,04,03,08,43,2.70
2011,04,03,08,44,2.70
2011,04,03,08,45,2.70
2011,04,03,08,46,2.80
2011,04,03,08,47,2.80
2011,04,03,08,48,2.80
2011,04,03,08,49,2.80
2011,04,03,08,50,2.90
2011,04,03,08,51,2.90
2011,04,03,08,52,2.90
2011,04,03,08,53,3.00
2011,04,03,08,54,3.00
2011,04,03,08,55,3.10
2011,04,03,08,56,3.10
2011,04,03,08,57,3.20
2011,04,03,08,58,3.20
2011,04,03,08,59,3.20
2011,04,03,09,00,3.30
2011,04,03,09,01,3.30
2011,04,03,09,02,3.30
2011,04,03,09,03,3.40
2011,04,03,09,04,3.40
2011,04,03,09,05,3.50
2011,04,03,09,06,3.50
2011,04,03,09,07,3.60
2011,04,03,09,08,3.60
2011,04,03,09,09,3.60
2011,04,03,09,10,3.70
2011,04,03,09,11,3.70
2011,04,03,09,12,3.80
2011,04,03,09,13,3.80
2011,04,03,09,14,3.80
2011,04,03,09,15,3.90
2011,04,03,09,16,3.90
2011,04,03,09,17,3.90
2011,04,03,09,18,4.00
2011,04,03,09,19,4.00
2011,04,03,09,20,4.00
2011,04,03,09,21,4.00
2011,04,03,09,22,4.00
2011,04,03,09,23,4.10
2011,04,03,09,24,4.10
2011,04,03,09,25,4.20
2011,04,03,09,26,4.20
2011,04,03,09,27,4.20
2011,04,03,09,28,4.30
2011,04,03,09,29,4.30
2011,04,03,09,30,4.30
2011,04,03,09,31,4.40
2011,04,03,09,32,4.40
2011,04,03,09,33,4.50
2011,04,03,09,34,4.50
2011,04,03,09,35,4.60
2011,04,03,09,36,4.70
2011,04,03,09,37,4.70
2011,04,03,09,38,4.70
2011,04,03,09,39,4.70
2011,04,03,09,40,4.80
2011,04,03,09,41,4.80
2011,04,03,09,42,4.80
2011,04,03,09,43,4.90
2011,04,03,09,44,4.90
2011,04,03,09,45,4.90
2011,04,03,09,46,4.90
2011,04,03,09,47,5.00
2011,04,03,09,48,5.00
2011,04,03,09,49,5.10
2011,04,03,09,50,5.10
2011,04,03,09,51,5.10
2011,04,03,09,52,5.10
2011,04,03,09,53,5.20
2011,04,03,09,54,5.20
2011,04,03,09,55,5.30
2011,04,03,09,56,5.30
2011,04,03,09,57,5.30
2011,04,03,09,58,5.40
2011,04,03,09,59,5.40
2011,04,03,10,00,5.50
2011,04,03,10,01,5.50
2011,04,03,10,02,5.60
2011,04,03,10,03,5.60
2011,04,03,10,04,5.60
2011,04,03,10,05,5.70
2011,04,03,10,06,5.70
2011,04,03,10,07,5.70
2011,04,03,10,08,5.70
2011,04,03,10,09,5.80
2011,04,03,10,10,5.80
2011,04,03,10,11,5.80
2011,04,03,10,12,5.80
2011,04,03,10,13,5.80
2011,04,03,10,14,5.90
2011,04,03,10,15,5.90
2011,04,03,10,16,5.90
2011,04,03,10,17,5.90
2011,04,03,10,18,5.90
2011,04,03,10,19,5.90
2011,04,03,10,20,5.90
2011,04,03,10,21,5.90
2011,04,03,10,22,5.90
2011,04,03,10,23,5.90
2011,04,03,10,24,6.00
2011,04,03,10,25,6.00
2011,04,03,10,26,6.00
2011,04,03,10,27,6.10
2011,04,03,10,28,6.10
2011,04,03,10,29,6.10
2011,04,03,10,30,6.20
2011,04,03,10,31,6.20
2011,04,03,10,32,6.20
2011,04,03,10,33,6.30
2011,04,03,10,34,6.40
2011,04,03,10,35,6.50
2011,04,03,10,36,6.50
2011,04,03,10,37,6.60
2011,04,03,10,38,6.70
2011,04,03,10,39,6.80
2011,04,03,10,40,6.80
2011,04,03,10,41,6.80
2011,04,03,10,42,6.80
2011,04,03,10,43,6.80
2011,04,03,10,44,6.80
2011,04,03,10,45,6.90
2011,04,03,10,46,6.90
2011,04,03,10,47,6.90
2011,04,03,10,48,7.00
2011,04,03,10,49,7.00
2011,04,03,10,50,7.10
2011,04,03,10,51,7.10
2011,04,03,10,52,7.10
2011,04,03,10,53,7.10
2011,04,03,10,54,7.10
2011,04,03,10,55,7.10
2011,04,03,10,56,7.10
2011,04,03,10,57,7.10
2011,04,03,10,58,7.10
2011,04,03,10,59,7.20
2011,04,03,11,00,7.20
2011,04,03,11,01,7.20
2011,04,03,11,02,7.20
2011,04,03,11,03,7.10
2011,04,03,11,04,7.10
2011,04,03,11,05,7.10
2011,04,03,11,06,7.10
2011,04,03,11,07,7.10
2011,04,03,11,08,7.20
2011,04,03,11,09,7.20
2011,04,03,11,10,7.20
2011,04,03,11,11,7.20
2011,04,03,11,12,7.20
2011,04,03,11,13,7.20
2011,04,03,11,14,7.20
2011,04,03,11,15,7.20
2011,04,03,11,16,7.20
2011,04,03,11,17,7.20
2011,04,03,11,18,7.20
2011,04,03,11,19,7.20
2011,04,03,11,20,7.10
2011,04,03,11,21,7.10
2011,04,03,11,22,7.10
2011,04,03,11,23,7.10
2011,04,03,11,24,7.10
2011,04,03,11,25,7.10
2011,04,03,11,26,7.10
2011,04,03,11,27,7.10
2011,04,03,11,28,7.10
2011,04,03,11,29,7.10
2011,04,03,11,30,7.10
2011,04,03,11,31,7.10
2011,04,03,11,32,7.10
2011,04,03,11,33,7.10
2011,04,03,11,34,7.20
2011,04,03,11,35,7.20
2011,04,03,11,36,7.20
2011,04,03,11,37,7.10
2011,04,03,11,38,7.10
2011,04,03,11,39,7.20
2011,04,03,11,40,7.10
2011,04,03,11,41,7.10
2011,04,03,11,42,7.10
2011,04,03,11,43,7.10
2011,04,03,11,44,7.10
2011,04,03,11,45,7.10
2011,04,03,11,46,7.10
2011,04,03,11,47,7.10
2011,04,03,11,48,7.20
2011,04,03,11,49,7.20
2011,04,03,11,50,7.20
2011,04,03,11,51,7.20
2011,04,03,11,52,7.20
2011,04,03,11,53,7.20
2011,04,03,11,54,7.20
2011,04,03,11,55,7.20
2011,04,03,11,56,7.20
2011,04,03,11,57,7.20
2011,04,03,11,58,7.20
2011,04,03,11,59,7.20
2011,04,03,12,00,7.20
2011,04,03,12,01,7.20
2011,04,03,12,02,7.20
2011,04,03,12,03,7.20
2011,04,03,12,04,7.20
2011,04,03,12,05,7.20
2011,04,03,12,06,7.20
2011,04,03,12,07,7.20
2011,04,03,12,08,7.20
2011,04,03,12,09,7.20
2011,04,03,12,10,7.20
2011,04,03,12,11,7.20
2011,04,03,12,12,7.20
2011,04,03,12,13,7.20
2011,04,03,12,14,7.20
2011,04,03,12,15,7.20
2011,04,03,12,16,7.20
2011,04,03,12,17,7.20
2011,04,03,12,18,7.20
2011,04,03,12,19,7.20
2011,04,03,12,20,7.20
2011,04,03,12,21,7.20
2011,04,03,12,22,7.20
2011,04,03,12,23,7.20
2011,04,03,12,24,7.20
2011,04,03,12,25,7.20
2011,04,03,12,26,7.20
2011,04,03,12,27,7.20
2011,04,03,12,28,7.20
2011,04,03,12,29,7.20
2011,04,03,12,30,7.20
2011,04,03,12,31,7.20
2011,04,03,12,32,7.20
2011,04,03,12,33,7.20
2011,04,03,12,34,7.20
2011,04,03,12,35,7.20
2011,04,03,12,36,7.20
2011,04,03,12,37,7.20
2011,04,03,12,38,7.20
2011,04,03,12,39,7.20
2011,04,03,12,40,7.20
2011,04,03,12,41,7.30
2011,04,03,12,42,7.30
2011,04,03,12,43,7.30
2011,04,03,12,44,7.30
2011,04,03,12,45,7.20
2011,04,03,12,46,7.30
2011,04,03,12,47,7.30
2011,04,03,12,48,7.20
2011,04,03,12,49,7.20
2011,04,03,12,50,7.20
2011,04,03,12,51,7.20
2011,04,03,12,52,7.20
2011,04,03,12,53,7.30
2011,04,03,12,54,7.30
2011,04,03,12,55,7.20
2011,04,03,12,56,7.20
2011,04,03,12,57,7.20
2011,04,03,12,58,7.10
2011,04,03,12,59,7.00
2011,04,03,13,00,7.00
2011,04,03,13,01,6.90
2011,04,03,13,02,6.90
2011,04,03,13,03,6.80
2011,04,03,13,04,6.80
2011,04,03,13,05,6.80
2011,04,03,13,06,6.70
2011,04,03,13,07,6.70
2011,04,03,13,08,6.60
2011,04,03,13,09,6.60
2011,04,03,13,10,6.60
2011,04,03,13,11,6.60
2011,04,03,13,12,6.60
2011,04,03,13,13,6.60
2011,04,03,13,14,6.60
2011,04,03,13,15,6.60
2011,04,03,13,16,6.60
2011,04,03,13,17,6.60
2011,04,03,13,18,6.50
2011,04,03,13,19,6.60
2011,04,03,13,20,6.60
2011,04,03,13,21,6.60
2011,04,03,13,22,6.60
2011,04,03,13,23,6.60
2011,04,03,13,24,6.60
2011,04,03,13,25,6.60
2011,04,03,13,26,6.60
2011,04,03,13,27,6.60
2011,04,03,13,28,6.60
2011,04,03,13,29,6.60
2011,04,03,13,30,6.70
2011,04,03,13,31,6.70
2011,04,03,13,32,6.70
2011,04,03,13,33,6.80
2011,04,03,13,34,6.80
2011,04,03,13,35,6.80
2011,04,03,13,36,6.80
2011,04,03,13,37,6.80
2011,04,03,13,38,6.80
2011,04,03,13,39,6.80
2011,04,03,13,40,6.70
2011,04,03,13,41,6.70
2011,04,03,13,42,6.70
2011,04,03,13,43,6.70
2011,04,03,13,44,6.60
2011,04,03,13,45,6.60
2011,04,03,13,46,6.60
2011,04,03,13,47,6.60
2011,04,03,13,48,6.60
2011,04,03,13,49,6.50
2011,04,03,13,50,6.50
2011,04,03,13,51,6.50
2011,04,03,13,52,6.50
2011,04,03,13,53,6.50
2011,04,03,13,54,6.50
2011,04,03,13,55,6.60
2011,04,03,13,56,6.60
2011,04,03,13,57,6.60
2011,04,03,13,58,6.60
2011,04,03,13,59,6.60
2011,04,03,14,00,6.60
2011,04,03,14,01,6.60
2011,04,03,14,02,6.60
2011,04,03,14,03,6.60
2011,04,03,14,04,6.60
2011,04,03,14,05,6.60
2011,04,03,14,06,6.60
2011,04,03,14,07,6.70
2011,04,03,14,08,6.60
2011,04,03,14,09,6.70
2011,04,03,14,10,6.60
2011,04,03,14,11,6.70
2011,04,03,14,12,6.70
2011,04,03,14,13,6.70
2011,04,03,14,14,6.70
2011,04,03,14,15,6.70
2011,04,03,14,16,6.70
2011,04,03,14,17,6.70
2011,04,03,14,18,6.70
2011,04,03,14,19,6.70
2011,04,03,14,20,6.70
2011,04,03,14,21,6.70
2011,04,03,14,22,6.80
2011,04,03,14,23,6.80
2011,04,03,14,24,6.80
2011,04,03,14,25,6.80
2011,04,03,14,26,6.80
2011,04,03,14,27,6.80
2011,04,03,14,28,6.80
2011,04,03,14,29,6.80
2011,04,03,14,30,6.80
2011,04,03,14,31,6.80
2011,04,03,14,32,6.80
2011,04,03,14,33,6.90
2011,04,03,14,34,6.90
2011,04,03,14,35,7.00
2011,04,03,14,36,7.00
2011,04,03,14,37,7.00
2011,04,03,14,38,7.10
2011,04,03,14,39,7.10
2011,04,03,14,40,7.10
2011,04,03,14,41,7.20
2011,04,03,14,42,7.20
2011,04,03,14,43,7.20
2011,04,03,14,44,7.20
2011,04,03,14,45,7.20
2011,04,03,14,46,7.20
2011,04,03,14,47,7.20
2011,04,03,14,48,7.20
2011,04,03,14,49,7.20
2011,04,03,14,50,7.20
2011,04,03,14,51,7.20
2011,04,03,14,52,7.20
2011,04,03,14,53,7.20
2011,04,03,14,54,7.20
2011,04,03,14,55,7.10
2011,04,03,14,56,7.10
2011,04,03,14,57,7.20
2011,04,03,14,58,7.10
2011,04,03,14,59,7.10
2011,04,03,15,00,7.10
2011,04,03,15,01,7.10
2011,04,03,15,02,7.10
2011,04,03,15,03,7.10
2011,04,03,15,04,7.00
2011,04,03,15,05,7.10
2011,04,03,15,06,7.00
2011,04,03,15,07,7.00
2011,04,03,15,08,6.90
2011,04,03,15,09,6.90
2011,04,03,15,10,6.80
2011,04,03,15,11,6.80
2011,04,03,15,12,6.90
2011,04,03,15,13,6.90
2011,04,03,15,14,6.90
2011,04,03,15,15,7.00
2011,04,03,15,16,7.00
2011,04,03,15,17,7.00
2011,04,03,15,18,7.10
2011,04,03,15,19,7.10
2011,04,03,15,20,7.10
2011,04,03,15,21,7.10
2011,04,03,15,22,7.20
2011,04,03,15,23,7.20
2011,04,03,15,24,7.20
2011,04,03,15,25,7.20
2011,04,03,15,26,7.20
2011,04,03,15,27,7.20
2011,04,03,15,28,7.20
2011,04,03,15,29,7.20
2011,04,03,15,30,7.20
2011,04,03,15,31,7.20
2011,04,03,15,32,7.20
2011,04,03,15,33,7.20
2011,04,03,15,34,7.20
2011,04,03,15,35,7.20
2011,04,03,15,36,7.20
2011,04,03,15,37,7.20
2011,04,03,15,38,7.20
2011,04,03,15,39,7.20
2011,04,03,15,40,7.20
2011,04,03,15,41,7.10
2011,04,03,15,42,6.90
2011,04,03,15,43,6.90
2011,04,03,15,44,6.80
2011,04,03,15,45,6.80
2011,04,03,15,46,6.80
2011,04,03,15,47,6.70
2011,04,03,15,48,6.70
2011,04,03,15,49,6.70
2011,04,03,15,50,6.70
2011,04,03,15,51,6.70
2011,04,03,15,52,6.70
2011,04,03,15,53,6.70
2011,04,03,15,54,6.70
2011,04,03,15,55,6.70
2011,04,03,15,56,6.70
2011,04,03,15,57,6.70
2011,04,03,15,58,6.80
2011,04,03,15,59,6.70
2011,04,03,16,00,6.70
2011,04,03,16,01,6.70
2011,04,03,16,02,6.70
2011,04,03,16,03,6.70
2011,04,03,16,04,6.70
2011,04,03,16,05,6.70
2011,04,03,16,06,6.70
2011,04,03,16,07,6.70
2011,04,03,16,08,6.70
2011,04,03,16,09,6.60
2011,04,03,16,10,6.60
2011,04,03,16,11,6.60
2011,04,03,16,12,6.60
2011,04,03,16,13,6.50
2011,04,03,16,14,6.50
2011,04,03,16,15,6.50
2011,04,03,16,16,6.40
2011,04,03,16,17,6.40
2011,04,03,16,18,6.40
2011,04,03,16,19,6.40
2011,04,03,16,20,6.40
2011,04,03,16,21,6.40
2011,04,03,16,22,6.40
2011,04,03,16,23,6.40
2011,04,03,16,24,6.40
2011,04,03,16,25,6.40
2011,04,03,16,26,6.40
2011,04,03,16,27,6.40
2011,04,03,16,28,6.40
2011,04,03,16,29,6.40
2011,04,03,16,30,6.40
2011,04,03,16,31,6.30
2011,04,03,16,32,6.30
2011,04,03,16,33,6.30
2011,04,03,16,34,6.30
2011,04,03,16,35,6.30
2011,04,03,16,36,6.30
2011,04,03,16,37,6.30
2011,04,03,16,38,6.30
2011,04,03,16,39,6.30
2011,04,03,16,40,6.30
2011,04,03,16,41,6.30
2011,04,03,16,42,6.30
2011,04,03,16,43,6.30
2011,04,03,16,44,6.30
2011,04,03,16,45,6.30
2011,04,03,16,46,6.30
2011,04,03,16,47,6.30
2011,04,03,16,48,6.30
2011,04,03,16,49,6.40
2011,04,03,16,50,6.40
2011,04,03,16,51,6.40
2011,04,03,16,52,6.40
2011,04,03,16,53,6.40
2011,04,03,16,54,6.40
2011,04,03,16,55,6.40
2011,04,03,16,56,6.40
2011,04,03,16,57,6.50
2011,04,03,16,58,6.50
2011,04,03,16,59,6.50
2011,04,03,17,00,6.50
2011,04,03,17,01,6.50
2011,04,03,17,02,6.50
2011,04,03,17,03,6.40
2011,04,03,17,04,6.40
2011,04,03,17,05,6.40
2011,04,03,17,06,6.30
2011,04,03,17,07,6.30
2011,04,03,17,08,6.20
2011,04,03,17,09,6.20
2011,04,03,17,10,6.20
2011,04,03,17,11,6.20
2011,04,03,17,12,6.20
2011,04,03,17,13,6.20
2011,04,03,17,14,6.20
2011,04,03,17,15,6.10
2011,04,03,17,16,6.10
2011,04,03,17,17,6.10
2011,04,03,17,18,6.10
2011,04,03,17,19,6.10
2011,04,03,17,20,6.00
2011,04,03,17,21,6.00
2011,04,03,17,22,6.00
2011,04,03,17,23,6.00
2011,04,03,17,24,6.00
2011,04,03,17,25,6.00
2011,04,03,17,26,6.00
2011,04,03,17,27,6.00
2011,04,03,17,28,5.90
2011,04,03,17,29,6.00
2011,04,03,17,30,6.00
2011,04,03,17,31,6.00
2011,04,03,17,32,6.00
2011,04,03,17,33,6.00
2011,04,03,17,34,6.00
2011,04,03,17,35,6.00
2011,04,03,17,36,6.10
2011,04,03,17,37,6.10
2011,04,03,17,38,6.10
2011,04,03,17,39,6.00
2011,04,03,17,40,6.00
2011,04,03,17,41,6.00
2011,04,03,17,42,6.00
2011,04,03,17,43,6.00
2011,04,03,17,44,5.90
2011,04,03,17,45,5.90
2011,04,03,17,46,5.90
2011,04,03,17,47,5.90
2011,04,03,17,48,5.90
2011,04,03,17,49,5.80
2011,04,03,17,50,5.80
2011,04,03,17,51,5.80
2011,04,03,17,52,5.70
2011,04,03,17,53,5.70
2011,04,03,17,54,5.70
2011,04,03,17,55,5.70
2011,04,03,17,56,5.70
2011,04,03,17,57,5.70
2011,04,03,17,58,5.70
2011,04,03,17,59,5.60
2011,04,03,18,00,5.60